Location: Newark
(49.3000°N, 9.4667°E)
Time: 10:34:43
(UTC+00:00)

S-56A Canister/Altair - Visible Passes

Search period start: 14 October 2019 00:00
Search period end: 24 October 2019 00:00
Orbit: 633 x 2499 km, 38.9° (Epoch: 13 October)

Date Brightness Start Highest point End Pass type
(mag) Time Alt. Az. Time Alt. Az. Time Alt. Az.
14 Oct 10.2 03:22:40 14° SSW 03:28:25 30° SSE 03:37:42 10° E visible
15 Oct 10.0 02:51:57 18° S 02:55:42 26° SE 03:03:51 10° E visible
15 Oct 10.0 04:50:43 10° WSW 04:59:00 46° SSE 05:10:56 10° E visible
16 Oct 10.1 02:21:12 20° SSE 02:23:04 22° SE 02:29:58 10° E visible
16 Oct 9.9 04:18:38 11° SW 04:26:02 43° SSE 04:37:12 10° E visible
17 Oct 10.3 01:50:25 18° SE 01:50:30 18° SE 01:56:00 10° E visible
17 Oct 9.8 03:47:51 19° SW 03:53:10 40° SSE 04:03:29 10° E visible
18 Oct 10.6 01:19:36 13° ESE 01:19:36 13° ESE 01:21:51 10° ESE visible
18 Oct 9.5 03:17:03 26° SSW 03:20:23 36° SSE 03:29:48 10° E visible
19 Oct 9.4 02:46:13 31° S 02:47:40 33° SSE 02:56:09 10° E visible
19 Oct 9.7 04:43:39 10° WSW 04:51:15 46° S 05:02:29 10° ESE visible
20 Oct 9.6 02:15:23 29° SSE 02:15:23 29° SSE 02:22:31 10° E visible
20 Oct 9.6 04:12:48 18° WSW 04:18:21 44° S 04:28:51 10° ESE visible
21 Oct 10.1 01:44:31 22° SE 01:44:31 22° SE 01:48:56 10° E visible
21 Oct 9.3 03:41:57 27° SW 03:45:31 42° S 03:55:16 10° ESE visible
22 Oct 10.5 01:13:40 14° ESE 01:13:40 14° ESE 01:15:20 10° ESE visible
22 Oct 9.1 03:11:06 36° SSW 03:12:44 39° S 03:21:42 10° ESE visible
22 Oct 9.9 05:09:12 10° WSW 05:16:36 39° S 05:27:12 10° SE visible
23 Oct 9.2 02:40:15 36° SSE 02:40:15 36° SSE 02:48:11 10° ESE visible
23 Oct 9.7 04:37:40 14° WSW 04:43:42 39° S 04:53:42 10° SE visible
